date,time,SUV Intensity [MED/Hr],UV Index,Daily total [MED],Since Last [MED]
17/08/2022,10:09:59,0.316,1.0,0.509,0.509
17/08/2022,10:11:55,0.383,1.0,0.52,0.011
17/08/2022,10:12:46,0.361,1.0,0.526,0.006
17/08/2022,10:13:47,0.370,1.0,0.532,0.006
17/08/2022,10:14:47,0.355,1.0,0.538,0.006
17/08/2022,10:15:46,0.344,1.0,0.544,0.006
17/08/2022,10:16:46,0.353,1.0,0.55,0.006
17/08/2022,10:17:47,0.327,1.0,0.556,0.006
17/08/2022,10:18:47,0.313,1.0,0.561,0.005
17/08/2022,10:19:55,0.365,1.0,0.567,0.006
17/08/2022,10:20:47,0.361,1.0,0.572,0.005
17/08/2022,10:21:46,0.353,1.0,0.578,0.006
17/08/2022,10:22:46,0.333,1.0,0.584,0.006
17/08/2022,10:23:45,0.319,1.0,0.589,0.005
17/08/2022,10:24:47,0.335,1.0,0.595,0.006
17/08/2022,10:25:55,0.290,1.0,0.601,0.006
17/08/2022,10:26:48,0.304,1.0,0.605,0.004
17/08/2022,10:27:46,0.280,1.0,0.61,0.005
17/08/2022,10:28:47,0.273,1.0,0.614,0.004
17/08/2022,10:29:47,0.283,1.0,0.619,0.005
17/08/2022,10:30:47,0.300,1.0,0.624,0.005
17/08/2022,10:31:47,0.304,1.0,0.629,0.005
17/08/2022,10:32:47,0.306,1.0,0.634,0.005
17/08/2022,10:33:46,0.361,1.0,0.639,0.005
17/08/2022,10:34:47,0.344,1.0,0.645,0.006
17/08/2022,10:35:47,0.309,1.0,0.651,0.006
17/08/2022,10:36:47,0.288,1.0,0.656,0.005
17/08/2022,10:37:47,0.321,1.0,0.661,0.005
17/08/2022,10:38:47,0.357,1.0,0.666,0.005
17/08/2022,10:39:47,0.346,1.0,0.672,0.006
17/08/2022,10:40:54,0.314,1.0,0.679,0.007
17/08/2022,10:41:47,0.310,1.0,0.683,0.004
17/08/2022,10:42:46,0.308,1.0,0.688,0.005
17/08/2022,10:43:54,0.358,1.0,0.694,0.006
17/08/2022,10:44:47,0.373,1.0,0.7,0.006
17/08/2022,10:45:46,0.343,1.0,0.706,0.006
17/08/2022,10:46:47,0.358,1.0,0.712,0.006
17/08/2022,10:47:47,0.375,1.0,0.718,0.006
17/08/2022,10:48:46,0.389,1.0,0.724,0.006
17/08/2022,10:49:47,0.365,1.0,0.731,0.007
17/08/2022,10:50:47,0.466,1.0,0.737,0.006
17/08/2022,10:51:47,0.565,1.0,0.746,0.009
17/08/2022,10:52:47,0.522,1.0,0.755,0.009
17/08/2022,10:53:46,0.433,1.0,0.763,0.008
17/08/2022,10:54:47,0.420,1.0,0.77,0.007
17/08/2022,10:55:47,0.441,1.0,0.777,0.007
17/08/2022,10:56:47,0.542,1.0,0.785,0.008
17/08/2022,10:57:47,0.463,1.0,0.794,0.009
17/08/2022,10:58:47,0.528,1.0,0.802,0.008
17/08/2022,10:59:46,0.489,1.0,0.811,0.009
17/08/2022,11:00:47,0.499,1.0,0.819,0.008
17/08/2022,11:01:47,0.539,1.0,0.827,0.008
17/08/2022,11:02:47,0.537,1.0,0.836,0.009
17/08/2022,11:03:47,0.555,1.0,0.845,0.009
17/08/2022,11:04:55,0.599,1.0,0.857,0.012
17/08/2022,11:05:47,0.588,1.0,0.865,0.008
17/08/2022,11:18:39,0.543,1.0,0.955,0.09
17/08/2022,11:32:13,0.305,1.0,1.053,0.098
17/08/2022,11:36:50,0.418,1.0,1.081,0.028
17/08/2022,11:37:46,0.388,1.0,1.087,0.006
17/08/2022,11:38:57,0.329,1.0,1.094,0.007
17/08/2022,11:40:47,0.275,1.0,1.103,0.009
17/08/2022,11:41:47,0.310,1.0,1.108,0.005
17/08/2022,11:42:46,0.352,1.0,1.114,0.006
17/08/2022,11:43:47,0.331,1.0,1.12,0.006
17/08/2022,11:44:47,0.301,1.0,1.125,0.005
17/08/2022,11:45:47,0.317,1.0,1.13,0.005
17/08/2022,11:46:47,0.322,1.0,1.135,0.005
17/08/2022,11:47:47,0.312,1.0,1.141,0.006
17/08/2022,11:48:46,0.307,1.0,1.146,0.005
17/08/2022,11:49:47,0.328,1.0,1.151,0.005
17/08/2022,11:50:46,0.370,1.0,1.157,0.006
17/08/2022,11:51:47,0.444,1.0,1.164,0.007
17/08/2022,11:52:47,0.436,1.0,1.171,0.007
17/08/2022,11:53:47,0.484,1.0,1.178,0.007
17/08/2022,11:54:47,0.585,1.0,1.187,0.009
17/08/2022,11:55:47,0.630,1.0,1.197,0.01
17/08/2022,11:56:47,0.626,1.0,1.208,0.011
17/08/2022,11:57:47,0.563,1.0,1.218,0.01
17/08/2022,11:58:47,0.607,1.0,1.228,0.01
17/08/2022,11:59:55,0.708,2.0,1.24,0.012
17/08/2022,12:00:47,0.784,2.0,1.251,0.011
17/08/2022,12:01:47,0.842,2.0,1.265,0.014
17/08/2022,12:02:55,0.950,2.0,1.281,0.016
17/08/2022,12:03:47,0.976,2.0,1.295,0.014
17/08/2022,12:04:47,0.937,2.0,1.311,0.016
17/08/2022,12:05:46,0.989,2.0,1.327,0.016
17/08/2022,12:06:47,0.852,2.0,1.342,0.015
17/08/2022,12:07:49,0.892,2.0,1.357,0.015
17/08/2022,12:08:47,1.227,3.0,1.373,0.016
17/08/2022,12:09:47,1.281,3.0,1.396,0.023
17/08/2022,12:10:46,1.448,3.0,1.419,0.023
17/08/2022,12:11:47,1.672,4.0,1.449,0.03
17/08/2022,12:12:47,1.620,4.0,1.475,0.026
17/08/2022,12:13:47,1.637,4.0,1.502,0.027
17/08/2022,12:14:47,1.388,3.0,1.527,0.025
17/08/2022,12:15:47,1.426,3.0,1.551,0.024
17/08/2022,12:16:47,1.623,4.0,1.574,0.023
17/08/2022,12:17:46,1.645,4.0,1.601,0.027
17/08/2022,12:18:47,1.734,4.0,1.629,0.028
17/08/2022,12:19:47,1.257,3.0,1.656,0.027
17/08/2022,12:20:55,1.324,3.0,1.681,0.025
17/08/2022,12:21:47,1.578,4.0,1.705,0.024
17/08/2022,12:22:46,1.313,3.0,1.727,0.022
17/08/2022,12:23:55,1.550,4.0,1.752,0.025
17/08/2022,12:24:47,1.753,4.0,1.777,0.025
17/08/2022,12:25:55,1.752,4.0,1.809,0.032
17/08/2022,12:26:55,1.488,3.0,1.837,0.028
17/08/2022,12:27:47,1.485,3.0,1.859,0.022
17/08/2022,12:28:47,1.671,4.0,1.887,0.028
17/08/2022,12:29:47,1.391,3.0,1.912,0.025
17/08/2022,12:30:47,1.402,3.0,1.935,0.023
17/08/2022,12:31:47,1.408,3.0,1.958,0.023
17/08/2022,12:32:47,1.247,3.0,1.981,0.023
17/08/2022,12:33:47,1.380,3.0,2.001,0.02
17/08/2022,12:34:47,1.253,3.0,2.024,0.023
17/08/2022,12:35:47,1.382,3.0,2.045,0.021
17/08/2022,12:36:47,1.412,3.0,2.068,0.023
17/08/2022,12:37:47,1.277,3.0,2.091,0.023
17/08/2022,12:38:56,1.260,3.0,2.117,0.026
17/08/2022,12:39:47,1.310,3.0,2.135,0.018
17/08/2022,12:40:49,1.319,3.0,2.156,0.021
17/08/2022,12:41:55,1.616,4.0,2.183,0.027
17/08/2022,12:42:46,1.683,4.0,2.207,0.024
17/08/2022,12:43:47,1.367,3.0,2.233,0.026
17/08/2022,12:44:47,1.173,3.0,2.253,0.02
17/08/2022,12:45:46,1.174,3.0,2.273,0.02
17/08/2022,12:46:46,1.163,3.0,2.292,0.019
17/08/2022,12:47:47,1.309,3.0,2.312,0.02
17/08/2022,12:48:47,1.246,3.0,2.337,0.025
17/08/2022,12:49:47,1.110,3.0,2.356,0.019
17/08/2022,12:50:55,1.021,2.0,2.377,0.021
17/08/2022,12:51:47,1.077,2.0,2.392,0.015
17/08/2022,12:52:47,1.060,2.0,2.411,0.019
17/08/2022,12:53:47,0.952,2.0,2.428,0.017
17/08/2022,12:54:47,0.816,2.0,2.443,0.015
17/08/2022,12:55:47,0.824,2.0,2.457,0.014
17/08/2022,12:56:47,0.878,2.0,2.47,0.013
17/08/2022,12:57:47,0.989,2.0,2.486,0.016
17/08/2022,12:58:47,1.145,3.0,2.504,0.018
17/08/2022,12:59:48,1.167,3.0,2.524,0.02
17/08/2022,13:00:47,1.053,2.0,2.542,0.018
17/08/2022,13:01:47,1.003,2.0,2.559,0.017
17/08/2022,13:02:55,0.982,2.0,2.578,0.019
17/08/2022,13:03:47,0.950,2.0,2.592,0.014
17/08/2022,13:04:47,0.935,2.0,2.607,0.015
17/08/2022,13:05:56,1.054,2.0,2.627,0.02
17/08/2022,13:06:45,1.155,3.0,2.642,0.015
17/08/2022,13:07:38,1.125,3.0,2.659,0.017
17/08/2022,13:08:47,0.872,2.0,2.678,0.019
17/08/2022,13:09:47,0.684,2.0,2.69,0.012
17/08/2022,13:10:47,0.669,2.0,2.701,0.011
17/08/2022,13:11:48,0.718,2.0,2.713,0.012
17/08/2022,13:12:47,0.742,2.0,2.725,0.012
17/08/2022,13:13:46,0.710,2.0,2.737,0.012
17/08/2022,13:14:47,0.765,2.0,2.749,0.012
17/08/2022,13:15:47,0.852,2.0,2.763,0.014
17/08/2022,13:16:47,0.873,2.0,2.777,0.014
17/08/2022,13:17:47,0.865,2.0,2.792,0.015
17/08/2022,13:18:47,0.884,2.0,2.807,0.015
17/08/2022,13:19:47,0.943,2.0,2.821,0.014
17/08/2022,13:20:47,1.000,2.0,2.837,0.016
17/08/2022,13:21:47,1.022,2.0,2.854,0.017
17/08/2022,13:22:47,0.972,2.0,2.871,0.017
17/08/2022,13:23:47,0.926,2.0,2.887,0.016
17/08/2022,13:24:47,0.954,2.0,2.902,0.015
17/08/2022,13:25:47,0.936,2.0,2.918,0.016
17/08/2022,13:26:47,0.799,2.0,2.933,0.015
17/08/2022,13:27:47,0.562,1.0,2.944,0.011
17/08/2022,13:28:47,0.431,1.0,2.953,0.009
17/08/2022,13:29:55,0.350,1.0,2.96,0.007
17/08/2022,13:30:47,0.367,1.0,2.965,0.005
17/08/2022,13:31:47,0.392,1.0,2.971,0.006
17/08/2022,13:32:55,0.398,1.0,2.979,0.008
17/08/2022,13:33:47,0.410,1.0,2.984,0.005
17/08/2022,13:34:47,0.452,1.0,2.992,0.008
17/08/2022,13:35:47,0.493,1.0,2.999,0.007
17/08/2022,13:36:47,0.489,1.0,3.008,0.009
17/08/2022,13:37:47,0.504,1.0,3.016,0.008
17/08/2022,13:38:47,0.560,1.0,3.025,0.009
17/08/2022,13:39:47,0.618,1.0,3.035,0.01
17/08/2022,13:40:47,0.695,2.0,3.045,0.01
17/08/2022,13:41:47,0.816,2.0,3.058,0.013
17/08/2022,13:42:47,0.947,2.0,3.073,0.015
17/08/2022,13:43:47,1.034,2.0,3.089,0.016
17/08/2022,13:44:55,0.949,2.0,3.108,0.019
17/08/2022,13:45:47,0.837,2.0,3.121,0.013
17/08/2022,13:46:47,0.842,2.0,3.135,0.014
17/08/2022,13:47:47,0.922,2.0,3.15,0.015
17/08/2022,13:48:47,0.992,2.0,3.166,0.016
17/08/2022,13:49:48,1.000,2.0,3.183,0.017
17/08/2022,13:50:55,0.930,2.0,3.201,0.018
17/08/2022,13:51:47,0.863,2.0,3.214,0.013
17/08/2022,13:52:47,0.789,2.0,3.228,0.014
17/08/2022,13:53:47,0.692,2.0,3.24,0.012
17/08/2022,13:54:47,0.668,2.0,3.251,0.011
17/08/2022,13:55:47,0.677,2.0,3.262,0.011
17/08/2022,13:56:47,0.745,2.0,3.274,0.012
17/08/2022,13:57:47,0.817,2.0,3.287,0.013
17/08/2022,13:58:47,0.821,2.0,3.301,0.014
17/08/2022,13:59:47,0.811,2.0,3.315,0.014
17/08/2022,14:00:47,0.798,2.0,3.328,0.013
17/08/2022,14:01:47,0.784,2.0,3.341,0.013
17/08/2022,14:02:47,0.783,2.0,3.355,0.014
17/08/2022,14:03:47,0.783,2.0,3.367,0.012
17/08/2022,14:04:47,0.792,2.0,3.38,0.013
17/08/2022,14:05:56,0.818,2.0,3.396,0.016
17/08/2022,14:06:47,0.792,2.0,3.408,0.012
17/08/2022,14:07:47,0.807,2.0,3.421,0.013
17/08/2022,14:08:56,0.738,2.0,3.436,0.015
17/08/2022,14:09:46,0.610,1.0,3.445,0.009
17/08/2022,14:10:47,0.503,1.0,3.455,0.01
17/08/2022,14:11:47,0.443,1.0,3.462,0.007
17/08/2022,14:12:47,0.403,1.0,3.47,0.008
17/08/2022,14:13:47,0.393,1.0,3.476,0.006
17/08/2022,14:14:47,0.403,1.0,3.483,0.007
17/08/2022,14:15:47,0.397,1.0,3.489,0.006
17/08/2022,14:16:47,0.415,1.0,3.496,0.007
17/08/2022,14:17:47,0.438,1.0,3.503,0.007
17/08/2022,14:18:55,0.446,1.0,3.512,0.009
17/08/2022,14:19:47,0.423,1.0,3.518,0.006
17/08/2022,14:20:47,0.367,1.0,3.525,0.007
17/08/2022,14:21:47,0.340,1.0,3.53,0.005
17/08/2022,14:22:47,0.343,1.0,3.536,0.006
17/08/2022,14:23:47,0.410,1.0,3.542,0.006
17/08/2022,14:24:47,0.419,1.0,3.549,0.007
17/08/2022,14:25:47,0.413,1.0,3.556,0.007
17/08/2022,14:27:12,0.411,1.0,3.566,0.01
17/08/2022,14:28:48,0.409,1.0,3.577,0.011
17/08/2022,14:29:56,0.466,1.0,3.585,0.008
17/08/2022,14:30:46,0.479,1.0,3.591,0.006
17/08/2022,14:31:48,0.459,1.0,3.6,0.009
17/08/2022,14:32:56,0.412,1.0,3.608,0.008
17/08/2022,14:33:45,0.446,1.0,3.614,0.006
17/08/2022,14:34:47,0.448,1.0,3.621,0.007
17/08/2022,14:35:48,0.382,1.0,3.628,0.007
17/08/2022,14:36:47,0.371,1.0,3.635,0.007
17/08/2022,14:37:47,0.385,1.0,3.641,0.006
17/08/2022,14:38:47,0.394,1.0,3.647,0.006
17/08/2022,14:39:47,0.347,1.0,3.654,0.007
17/08/2022,14:40:47,0.319,1.0,3.659,0.005
17/08/2022,14:41:47,0.299,1.0,3.664,0.005
17/08/2022,14:42:47,0.301,1.0,3.669,0.005
17/08/2022,14:43:47,0.297,1.0,3.674,0.005
17/08/2022,14:44:47,0.318,1.0,3.679,0.005
17/08/2022,14:45:47,0.321,1.0,3.684,0.005
17/08/2022,14:46:47,0.310,1.0,3.69,0.006
17/08/2022,14:47:55,0.292,1.0,3.696,0.006
17/08/2022,14:48:47,0.274,1.0,3.699,0.003
17/08/2022,14:49:47,0.284,1.0,3.704,0.005
17/08/2022,14:50:55,0.318,1.0,3.71,0.006
17/08/2022,14:51:47,0.381,1.0,3.715,0.005
17/08/2022,14:52:47,0.336,1.0,3.721,0.006
17/08/2022,14:53:47,0.290,1.0,3.726,0.005
17/08/2022,14:54:47,0.316,1.0,3.731,0.005
17/08/2022,14:55:47,0.382,1.0,3.737,0.006
17/08/2022,14:56:47,0.374,1.0,3.743,0.006
17/08/2022,14:57:47,0.382,1.0,3.749,0.006
17/08/2022,14:58:47,0.374,1.0,3.756,0.007
17/08/2022,14:59:47,0.325,1.0,3.762,0.006
17/08/2022,15:00:47,0.313,1.0,3.767,0.005
17/08/2022,15:01:47,0.281,1.0,3.772,0.005
17/08/2022,15:02:47,0.258,1.0,3.776,0.004
17/08/2022,15:03:47,0.254,1.0,3.781,0.005
17/08/2022,15:04:47,0.254,1.0,3.785,0.004
17/08/2022,15:05:48,0.283,1.0,3.789,0.004
17/08/2022,15:06:47,0.297,1.0,3.794,0.005
17/08/2022,15:07:47,0.272,1.0,3.799,0.005
17/08/2022,15:08:47,0.305,1.0,3.804,0.005
17/08/2022,15:09:49,0.376,1.0,3.81,0.006
17/08/2022,15:10:47,0.367,1.0,3.816,0.006
17/08/2022,15:11:56,0.286,1.0,3.822,0.006
17/08/2022,15:12:47,0.243,1.0,3.826,0.004
17/08/2022,15:13:47,0.232,1.0,3.83,0.004
17/08/2022,15:14:47,0.238,1.0,3.834,0.004
17/08/2022,15:15:47,0.223,1.0,3.837,0.003
17/08/2022,15:16:55,0.212,0.0,3.842,0.005
17/08/2022,15:17:47,0.200,0.0,3.844,0.002
17/08/2022,15:18:47,0.190,0.0,3.848,0.004
17/08/2022,15:19:47,0.193,0.0,3.851,0.003
17/08/2022,15:20:47,0.212,0.0,3.854,0.003
17/08/2022,15:21:47,0.229,1.0,3.858,0.004
17/08/2022,15:22:55,0.226,1.0,3.862,0.004
17/08/2022,15:23:47,0.195,0.0,3.865,0.003
17/08/2022,15:24:48,0.180,0.0,3.869,0.004
17/08/2022,15:25:47,0.178,0.0,3.871,0.002
17/08/2022,15:26:47,0.165,0.0,3.874,0.003
17/08/2022,15:27:49,0.167,0.0,3.877,0.003
17/08/2022,15:28:48,0.166,0.0,3.88,0.003
17/08/2022,15:29:47,0.171,0.0,3.883,0.003
17/08/2022,15:30:47,0.173,0.0,3.886,0.003
17/08/2022,15:31:47,0.171,0.0,3.888,0.002
17/08/2022,15:32:47,0.172,0.0,3.891,0.003
17/08/2022,15:33:47,0.176,0.0,3.894,0.003
17/08/2022,15:34:47,0.194,0.0,3.897,0.003
17/08/2022,15:35:47,0.206,0.0,3.901,0.004
17/08/2022,15:36:47,0.227,1.0,3.904,0.003
17/08/2022,15:37:47,0.255,1.0,3.908,0.004
17/08/2022,15:38:47,0.287,1.0,3.913,0.005
17/08/2022,15:39:47,0.282,1.0,3.918,0.005
17/08/2022,15:40:55,0.211,0.0,3.922,0.004
17/08/2022,15:41:48,0.171,0.0,3.925,0.003
17/08/2022,15:42:47,0.175,0.0,3.928,0.003
17/08/2022,15:43:56,0.163,0.0,3.931,0.003
17/08/2022,15:44:46,0.148,0.0,3.933,0.002
17/08/2022,15:45:47,0.145,0.0,3.936,0.003
17/08/2022,15:46:48,0.129,0.0,3.938,0.002
17/08/2022,15:47:47,0.128,0.0,3.94,0.002
17/08/2022,15:48:47,0.150,0.0,3.942,0.002
17/08/2022,15:49:48,0.139,0.0,3.945,0.003
17/08/2022,15:50:47,0.158,0.0,3.947,0.002
17/08/2022,15:51:48,0.133,0.0,3.95,0.003
17/08/2022,15:52:47,0.134,0.0,3.952,0.002
17/08/2022,15:53:47,0.132,0.0,3.954,0.002
17/08/2022,15:54:47,0.146,0.0,3.957,0.003
17/08/2022,15:55:47,0.155,0.0,3.959,0.002
17/08/2022,15:56:48,0.154,0.0,3.962,0.003
17/08/2022,15:57:47,0.148,0.0,3.964,0.002
17/08/2022,15:58:47,0.158,0.0,3.967,0.003
17/08/2022,15:59:47,0.182,0.0,3.97,0.003
17/08/2022,16:00:47,0.218,1.0,3.973,0.003
17/08/2022,16:01:47,0.231,1.0,3.977,0.004
17/08/2022,16:02:47,0.254,1.0,3.981,0.004
17/08/2022,16:03:47,0.246,1.0,3.985,0.004
17/08/2022,16:04:47,0.221,1.0,3.989,0.004
17/08/2022,16:05:48,0.176,0.0,3.992,0.003
17/08/2022,16:06:48,0.175,0.0,3.995,0.003
17/08/2022,16:07:55,0.174,0.0,3.998,0.003
17/08/2022,16:08:47,0.177,0.0,4.001,0.003
17/08/2022,16:09:47,0.200,0.0,4.004,0.003
17/08/2022,16:10:55,0.210,0.0,4.008,0.004
17/08/2022,16:11:47,0.226,1.0,4.011,0.003
17/08/2022,16:12:47,0.232,1.0,4.015,0.004
17/08/2022,16:13:47,0.258,1.0,4.019,0.004
17/08/2022,16:14:47,0.254,1.0,4.023,0.004
17/08/2022,16:15:47,0.265,1.0,4.028,0.005
17/08/2022,16:16:47,0.243,1.0,4.032,0.004
17/08/2022,16:17:47,0.220,1.0,4.036,0.004
17/08/2022,16:18:47,0.242,1.0,4.039,0.003
17/08/2022,16:19:47,0.254,1.0,4.044,0.005
17/08/2022,16:20:49,0.252,1.0,4.048,0.004
17/08/2022,16:21:56,0.237,1.0,4.053,0.005
17/08/2022,16:22:47,0.230,1.0,4.056,0.003
17/08/2022,16:23:47,0.216,0.0,4.06,0.004
17/08/2022,16:24:47,0.175,0.0,4.063,0.003
17/08/2022,16:25:48,0.152,0.0,4.066,0.003
17/08/2022,16:26:47,0.173,0.0,4.068,0.002
17/08/2022,16:27:48,0.179,0.0,4.071,0.003
17/08/2022,16:28:47,0.173,0.0,4.074,0.003
17/08/2022,16:29:48,0.180,0.0,4.077,0.003
17/08/2022,16:30:48,0.183,0.0,4.08,0.003
17/08/2022,16:31:47,0.182,0.0,4.083,0.003
17/08/2022,16:32:47,0.178,0.0,4.086,0.003
17/08/2022,16:33:48,0.178,0.0,4.089,0.003
17/08/2022,16:34:47,0.182,0.0,4.092,0.003
17/08/2022,16:35:48,0.177,0.0,4.095,0.003
17/08/2022,16:37:00,0.163,0.0,4.099,0.004
17/08/2022,16:38:57,0.194,0.0,4.104,0.005
17/08/2022,16:39:46,0.203,0.0,4.107,0.003
17/08/2022,16:40:47,0.174,0.0,4.11,0.003
17/08/2022,16:41:47,0.145,0.0,4.113,0.003
17/08/2022,16:42:47,0.134,0.0,4.115,0.002
17/08/2022,16:43:47,0.128,0.0,4.117,0.002
17/08/2022,16:44:48,0.126,0.0,4.119,0.002
17/08/2022,16:45:48,0.117,0.0,4.121,0.002
17/08/2022,16:46:47,0.102,0.0,4.123,0.002
17/08/2022,16:48:04,0.079,0.0,4.125,0.002
17/08/2022,16:49:48,0.075,0.0,4.127,0.002
17/08/2022,16:50:46,0.076,0.0,4.129,0.002
17/08/2022,16:51:47,0.079,0.0,4.13,0.001
17/08/2022,16:52:47,0.078,0.0,4.131,0.001
17/08/2022,16:53:47,0.074,0.0,4.132,0.001
17/08/2022,16:54:47,0.077,0.0,4.134,0.002
17/08/2022,16:55:47,0.102,0.0,4.135,0.001
17/08/2022,16:56:47,0.119,0.0,4.137,0.002
17/08/2022,16:57:47,0.106,0.0,4.139,0.002
17/08/2022,16:58:48,0.089,0.0,4.141,0.002
17/08/2022,16:59:47,0.091,0.0,4.142,0.001
17/08/2022,17:00:48,0.090,0.0,4.144,0.002
17/08/2022,17:01:52,0.093,0.0,4.145,0.001
17/08/2022,17:02:49,0.115,0.0,4.147,0.002
17/08/2022,17:03:56,0.146,0.0,4.149,0.002
17/08/2022,17:04:47,0.158,0.0,4.151,0.002
17/08/2022,17:05:48,0.133,0.0,4.154,0.003
17/08/2022,17:06:56,0.098,0.0,4.156,0.002
17/08/2022,17:07:47,0.099,0.0,4.157,0.001
17/08/2022,17:08:47,0.114,0.0,4.159,0.002
17/08/2022,17:09:56,0.126,0.0,4.161,0.002
17/08/2022,17:10:48,0.131,0.0,4.163,0.002
17/08/2022,17:11:48,0.134,0.0,4.166,0.003
17/08/2022,17:12:47,0.126,0.0,4.168,0.002
17/08/2022,17:13:47,0.101,0.0,4.17,0.002
17/08/2022,17:14:47,0.086,0.0,4.171,0.001
17/08/2022,17:15:48,0.072,0.0,4.172,0.001
17/08/2022,17:16:48,0.073,0.0,4.174,0.002
17/08/2022,17:17:47,0.067,0.0,4.175,0.001
17/08/2022,17:18:48,0.063,0.0,4.176,0.001
17/08/2022,17:19:48,0.071,0.0,4.177,0.001
17/08/2022,17:20:48,0.082,0.0,4.178,0.001
17/08/2022,17:21:47,0.096,0.0,4.18,0.002
17/08/2022,17:22:49,0.078,0.0,4.181,0.001
17/08/2022,17:23:48,0.070,0.0,4.182,0.001
17/08/2022,17:24:48,0.060,0.0,4.184,0.002
17/08/2022,17:25:47,0.052,0.0,4.184,0.0
17/08/2022,17:26:48,0.046,0.0,4.185,0.001
17/08/2022,17:27:47,0.045,0.0,4.186,0.001
17/08/2022,17:28:48,0.042,0.0,4.187,0.001
17/08/2022,17:29:47,0.045,0.0,4.187,0.0
17/08/2022,17:30:47,0.048,0.0,4.188,0.001
17/08/2022,17:31:57,0.042,0.0,4.189,0.001
17/08/2022,17:32:46,0.037,0.0,4.19,0.001
17/08/2022,17:33:56,0.036,0.0,4.19,0.0
17/08/2022,17:34:51,0.037,0.0,4.191,0.001
17/08/2022,17:35:48,0.041,0.0,4.192,0.001
17/08/2022,17:36:47,0.038,0.0,4.192,0.0
17/08/2022,17:37:47,0.038,0.0,4.193,0.001
17/08/2022,17:38:47,0.042,0.0,4.193,0.0
17/08/2022,17:39:48,0.042,0.0,4.194,0.001
17/08/2022,17:40:47,0.037,0.0,4.195,0.001
17/08/2022,17:41:48,0.034,0.0,4.195,0.0
17/08/2022,17:42:48,0.037,0.0,4.196,0.001
17/08/2022,17:43:47,0.039,0.0,4.197,0.001
17/08/2022,17:44:47,0.039,0.0,4.197,0.0
17/08/2022,17:45:47,0.039,0.0,4.198,0.001
17/08/2022,17:46:47,0.038,0.0,4.199,0.001
17/08/2022,17:47:47,0.037,0.0,4.199,0.0
17/08/2022,17:48:56,0.038,0.0,4.2,0.001
17/08/2022,17:49:46,0.037,0.0,4.2,0.0
17/08/2022,17:50:47,0.029,0.0,4.201,0.001
17/08/2022,17:51:47,0.026,0.0,4.201,0.0
17/08/2022,17:52:48,0.024,0.0,4.202,0.001
17/08/2022,17:53:48,0.024,0.0,4.202,0.0
17/08/2022,17:54:56,0.028,0.0,4.203,0.001
17/08/2022,17:55:47,0.029,0.0,4.203,0.0
17/08/2022,17:56:48,0.029,0.0,4.204,0.001
17/08/2022,17:57:47,0.027,0.0,4.204,0.0
17/08/2022,17:58:48,0.027,0.0,4.205,0.001
17/08/2022,17:59:47,0.027,0.0,4.205,0.0
17/08/2022,18:00:47,0.027,0.0,4.205,0.0
17/08/2022,18:01:48,0.028,0.0,4.206,0.001
17/08/2022,18:02:47,0.027,0.0,4.206,0.0
17/08/2022,18:03:47,0.025,0.0,4.207,0.001
17/08/2022,18:04:47,0.025,0.0,4.207,0.0
17/08/2022,18:05:47,0.024,0.0,4.208,0.001
17/08/2022,18:06:47,0.023,0.0,4.208,0.0
17/08/2022,18:07:47,0.023,0.0,4.208,0.0
17/08/2022,18:08:47,0.022,0.0,4.209,0.001
17/08/2022,18:09:48,0.022,0.0,4.209,0.0
17/08/2022,18:10:48,0.021,0.0,4.21,0.001
17/08/2022,18:11:47,0.021,0.0,4.21,0.0
17/08/2022,18:12:55,0.019,0.0,4.21,0.0
17/08/2022,18:13:47,0.018,0.0,4.211,0.001
17/08/2022,18:14:47,0.017,0.0,4.211,0.0
17/08/2022,18:15:55,0.017,0.0,4.211,0.0
17/08/2022,18:16:48,0.017,0.0,4.211,0.0
17/08/2022,18:17:47,0.015,0.0,4.212,0.001
17/08/2022,18:18:47,0.018,0.0,4.212,0.0
17/08/2022,18:19:48,0.019,0.0,4.212,0.0
17/08/2022,18:20:47,0.022,0.0,4.213,0.001
17/08/2022,18:21:47,0.021,0.0,4.213,0.0
17/08/2022,18:22:47,0.022,0.0,4.213,0.0
17/08/2022,18:23:47,0.021,0.0,4.214,0.001
17/08/2022,18:24:47,0.019,0.0,4.214,0.0
17/08/2022,18:25:48,0.019,0.0,4.214,0.0
17/08/2022,18:26:48,0.017,0.0,4.215,0.001
17/08/2022,18:27:48,0.016,0.0,4.215,0.0
17/08/2022,18:28:47,0.016,0.0,4.215,0.0
17/08/2022,18:29:48,0.016,0.0,4.215,0.0
17/08/2022,18:30:48,0.014,0.0,4.216,0.001
17/08/2022,18:31:48,0.013,0.0,4.216,0.0
17/08/2022,18:32:47,0.013,0.0,4.216,0.0
17/08/2022,18:33:47,0.014,0.0,4.216,0.0
17/08/2022,18:34:47,0.013,0.0,4.217,0.001
17/08/2022,18:35:47,0.013,0.0,4.217,0.0
17/08/2022,18:36:55,0.012,0.0,4.217,0.0
17/08/2022,18:37:47,0.012,0.0,4.217,0.0
17/08/2022,18:38:47,0.011,0.0,4.217,0.0
17/08/2022,18:39:56,0.010,0.0,4.218,0.001
17/08/2022,18:40:47,0.010,0.0,4.218,0.0
17/08/2022,18:41:47,0.011,0.0,4.218,0.0
17/08/2022,18:42:47,0.011,0.0,4.218,0.0
17/08/2022,18:43:47,0.011,0.0,4.218,0.0
17/08/2022,18:44:48,0.010,0.0,4.218,0.0
17/08/2022,18:45:48,0.010,0.0,4.219,0.001
17/08/2022,18:46:47,0.012,0.0,4.219,0.0
17/08/2022,18:47:47,0.011,0.0,4.219,0.0
17/08/2022,18:48:48,0.011,0.0,4.219,0.0
17/08/2022,18:49:48,0.012,0.0,4.219,0.0
17/08/2022,18:50:47,0.012,0.0,4.22,0.001
17/08/2022,18:51:48,0.012,0.0,4.22,0.0
17/08/2022,18:52:47,0.009,0.0,4.22,0.0
17/08/2022,18:53:47,0.009,0.0,4.22,0.0
17/08/2022,18:54:48,0.008,0.0,4.22,0.0
17/08/2022,18:55:47,0.008,0.0,4.22,0.0
17/08/2022,18:56:56,0.008,0.0,4.221,0.001
17/08/2022,18:57:47,0.007,0.0,4.221,0.0
17/08/2022,18:58:48,0.007,0.0,4.221,0.0
17/08/2022,18:59:47,0.008,0.0,4.221,0.0
17/08/2022,19:00:48,0.006,0.0,4.221,0.0
17/08/2022,19:01:47,0.006,0.0,4.221,0.0
17/08/2022,19:02:48,0.006,0.0,4.221,0.0
17/08/2022,19:03:48,0.005,0.0,4.221,0.0
17/08/2022,19:04:47,0.005,0.0,4.221,0.0
17/08/2022,19:05:50,0.004,0.0,4.221,0.0
17/08/2022,19:06:47,0.005,0.0,4.221,0.0
17/08/2022,19:07:48,0.004,0.0,4.221,0.0
17/08/2022,19:08:49,0.004,0.0,4.221,0.0
17/08/2022,19:09:47,0.004,0.0,4.221,0.0
17/08/2022,19:10:48,0.003,0.0,4.221,0.0
17/08/2022,19:11:48,0.003,0.0,4.221,0.0
17/08/2022,19:12:55,0.002,0.0,4.221,0.0
17/08/2022,19:13:47,0.003,0.0,4.221,0.0
17/08/2022,19:14:48,0.002,0.0,4.221,0.0
17/08/2022,19:15:48,0.002,0.0,4.221,0.0
17/08/2022,19:16:47,0.001,0.0,4.221,0.0
17/08/2022,19:17:56,0.002,0.0,4.221,0.0
17/08/2022,19:18:48,0.003,0.0,4.221,0.0
17/08/2022,19:19:48,0.003,0.0,4.221,0.0
17/08/2022,19:20:47,0.002,0.0,4.221,0.0
17/08/2022,19:21:48,0.002,0.0,4.221,0.0
17/08/2022,19:22:48,0.002,0.0,4.221,0.0
17/08/2022,19:23:55,0.003,0.0,4.221,0.0
17/08/2022,19:24:47,0.001,0.0,4.221,0.0
17/08/2022,19:26:03,0.001,0.0,4.221,0.0
17/08/2022,19:27:56,0.000,0.0,4.221,0.0
17/08/2022,19:28:46,0.000,0.0,4.221,0.0
17/08/2022,19:29:48,0.001,0.0,4.221,0.0
17/08/2022,19:30:48,0.000,0.0,4.221,0.0
17/08/2022,19:31:47,0.000,0.0,4.221,0.0
17/08/2022,19:32:47,0.000,0.0,4.221,0.0
17/08/2022,19:33:48,0.000,0.0,4.221,0.0
17/08/2022,19:34:47,0.000,0.0,4.221,0.0
17/08/2022,19:35:48,0.000,0.0,4.221,0.0
17/08/2022,19:36:47,0.000,0.0,4.221,0.0
17/08/2022,19:37:47,0.000,0.0,4.221,0.0
17/08/2022,19:38:47,-0.000,0.0,4.221,0.0
17/08/2022,19:39:47,-0.000,0.0,4.221,0.0
17/08/2022,19:40:48,-0.000,0.0,4.221,0.0
17/08/2022,19:41:56,-0.000,0.0,4.221,0.0
17/08/2022,19:42:46,-0.000,0.0,4.221,0.0
17/08/2022,19:44:04,0.000,0.0,4.221,0.0
17/08/2022,19:45:48,-0.000,0.0,4.221,0.0
17/08/2022,19:46:47,-0.000,0.0,4.221,0.0
17/08/2022,19:47:48,-0.000,0.0,4.221,0.0
17/08/2022,19:48:48,-0.000,0.0,4.221,0.0
17/08/2022,19:49:47,-0.000,0.0,4.221,0.0
17/08/2022,19:50:56,-0.001,0.0,4.221,0.0
17/08/2022,19:51:48,-0.001,0.0,4.221,0.0
17/08/2022,19:52:47,-0.000,0.0,4.221,0.0
17/08/2022,19:53:48,0.000,0.0,4.221,0.0
17/08/2022,19:54:47,-0.001,0.0,4.221,0.0
17/08/2022,19:55:47,-0.000,0.0,4.221,0.0
17/08/2022,19:56:47,-0.000,0.0,4.221,0.0
17/08/2022,19:57:48,-0.001,0.0,4.221,0.0
17/08/2022,19:58:47,-0.000,0.0,4.221,0.0
17/08/2022,19:59:48,-0.000,0.0,4.221,0.0
17/08/2022,20:00:48,-0.001,0.0,4.221,0.0
17/08/2022,20:01:47,-0.001,0.0,4.221,0.0
17/08/2022,20:02:47,-0.001,0.0,4.221,0.0
17/08/2022,20:03:48,-0.001,0.0,4.221,0.0
17/08/2022,20:04:47,-0.001,0.0,4.221,0.0
17/08/2022,20:05:56,-0.001,0.0,4.221,0.0
17/08/2022,20:06:47,-0.000,0.0,4.221,0.0
17/08/2022,20:07:48,-0.001,0.0,4.221,0.0
17/08/2022,20:08:56,-0.001,0.0,4.221,0.0
17/08/2022,20:09:48,0.000,0.0,4.221,0.0
17/08/2022,20:10:48,-0.000,0.0,4.221,0.0
17/08/2022,20:11:47,-0.000,0.0,4.221,0.0
17/08/2022,20:12:48,-0.001,0.0,4.221,0.0
17/08/2022,20:13:48,-0.001,0.0,4.221,0.0
17/08/2022,20:14:48,-0.001,0.0,4.221,0.0
17/08/2022,20:15:47,-0.001,0.0,4.221,0.0
17/08/2022,20:16:48,-0.000,0.0,4.221,0.0
17/08/2022,20:17:48,-0.000,0.0,4.221,0.0
17/08/2022,20:18:48,-0.000,0.0,4.221,0.0
17/08/2022,20:19:48,-0.000,0.0,4.221,0.0